Zurück zum Katalog

COSMOS 1275 DEB

AktivPO
NORAD 42225·DEBRIS·🇷🇺 Russia

Gestartet Jun 4, 1981 von Plesetsk Cosmodrome

Loading…

Nächste Überflüge (nächste 24 Stunden)

TLE

AktuellSource: Space-Track

Epoche: Sep 11, 2026, 21:24 UTC

1 42225U 81053UR  26254.89216794  .00001244  00000-0  59443-3 0  9996
2 42225  83.1436 120.8074 0033426 257.1492 102.5954 14.18178493658384

Verfolge COSMOS 1275 DEB in Echtzeit mit AllMySat

Download on the App Store